Theta_e
323 324 326 328 328 324 323 324 326 327 327 328 328 327 327 327 325 324 325 324 321 323 322 322 322 323 321 320 321 320 320 318 311 307 307 308 309 310 311 312 312 312 310
325 327 326 327 325 325 323 322 322 326 328 327 326 324 324 323 322 324 324 322 322 321 320 321 322 321 320 320 320 319 318 316 314 308 305 305 305 307 307 308 308 307 306
323 324 325 324 324 324 323 324 325 325 325 323 322 322 325 322 322 323 323 321 321 321 320 321 321 321 321 320 319 318 316 313 312 309 304 303 304 304 305 305 304 303 303
324 323 324 324 323 322 323 324 323 322 322 321 320 323 324 322 322 322 322 322 321 321 320 321 320 319 319 318 317 315 313 311 309 306 303 301 302 301 301 301 300 299 298
322 321 321 320 320 319 320 321 319 320 320 321 321 322 323 323 323 323 322 321 320 318 317 317 317 316 316 315 314 311 311 308 306 304 301 300 301 302 302 302 301 299 296
321 320 317 317 318 318 317 318 318 318 318 318 318 318 320 322 322 322 320 319 316 315 314 313 311 310 309 309 310 309 309 307 302 300 302 301 298 297 297 298 299 300 300
320 317 316 316 316 317 317 316 317 317 318 319 319 319 318 320 321 320 319 316 313 311 310 309 304 303 305 303 301 299 298 297 297 297 296 296 295 295 295 295 295 294 294
318 318 317 318 317 316 315 316 316 316 316 317 317 317 318 316 317 318 316 312 309 308 306 305 302 300 299 299 298 297 297 296 295 295 294 293 292 292 292 293 293 293 293
316 317 317 317 315 315 315 315 315 315 314 315 315 314 313 310 314 315 313 308 304 302 302 302 302 300 299 299 298 296 295 294 293 293 293 292 292 291 292 292 292 293 293
316 317 316 315 315 315 315 314 313 312 311 311 310 309 308 306 310 311 307 305 304 302 301 300 300 299 297 296 294 293 292 291 291 291 290 290 290 289 289 290 290 291 291
316 316 315 314 314 314 313 312 310 309 308 307 306 305 305 305 304 304 303 304 302 301 300 300 298 296 294 294 293 292 292 291 291 291 290 289 288 288 288 287 287 287 287
315 315 314 313 312 312 310 308 308 307 305 304 304 304 303 303 303 302 301 301 301 301 299 297 296 295 294 293 292 292 291 291 290 290 289 288 288 287 286 286 285 285 285
314 313 312 311 310 310 308 306 305 305 305 304 304 304 303 303 301 300 300 300 300 299 299 297 296 295 294 293 292 291 291 290 290 289 288 287 287 286 286 286 286 285 285
313 312 311 310 308 307 306 306 306 305 305 305 305 305 303 302 301 301 300 300 299 298 297 296 294 293 292 291 290 290 290 289 289 288 288 287 287 286 286 286 286 286 286
312 311 310 309 308 307 307 307 308 308 307 306 305 304 303 302 301 302 301 299 298 296 294 293 292 291 291 290 290 289 289 288 288 288 287 287 286 286 286 286 286 286 285
311 310 309 308 308 307 305 305 305 306 305 304 303 303 302 302 301 300 299 298 296 294 293 292 291 291 291 290 290 289 288 288 287 287 287 286 286 286 286 286 286 286 285
310 308 308 307 306 306 304 303 301 301 302 302 302 300 299 300 299 298 296 295 293 292 292 291 291 291 290 290 289 289 288 287 287 287 287 286 286 286 286 286 286 286 285
309 307 307 306 306 305 304 303 303 303 302 302 301 300 299 299 298 296 294 293 291 292 292 291 291 291 290 289 289 288 287 287 287 287 286 286 286 286 285 286 286 285 285
308 307 306 306 305 305 304 305 304 303 302 301 301 300 299 298 297 295 292 292 292 292 291 291 291 290 290 289 289 288 288 287 287 287 286 286 286 286 285 285 285 285 285
307 306 306 305 304 304 305 304 303 302 301 300 300 299 299 297 296 293 293 292 292 291 291 291 291 290 290 289 288 288 287 287 287 287 286 286 285 285 285 285 285 286 285
306 306 305 305 304 304 304 304 302 301 300 300 299 299 297 298 296 294 293 292 292 291 291 291 290 290 290 289 289 288 288 287 287 287 286 286 285 285 285 285 285 285 284
306 305 305 304 304 303 304 303 302 300 300 299 299 298 297 298 296 295 294 293 292 291 290 290 290 289 289 289 289 288 288 287 287 286 286 285 285 285 285 285 285 284 285
305 305 304 303 303 303 303 303 301 300 299 299 299 298 297 297 296 295 294 293 291 290 289 289 289 289 288 288 288 287 287 287 287 286 286 285 285 285 285 285 284 284 284
304 304 304 303 302 302 303 303 302 299 299 299 299 298 298 297 297 295 294 293 291 290 289 288 288 288 288 288 287 286 286 285 285 285 286 286 285 285 285 284 284 284 284
303 303 303 303 302 302 302 302 301 300 299 300 299 298 298 298 297 296 294 293 292 291 289 288 288 288 288 288 287 286 286 285 285 285 285 285 285 285 285 284 284 284 284
303 303 304 303 302 302 302 302 301 301 299 299 298 298 298 297 297 296 295 294 292 291 290 289 288 288 288 288 287 286 286 285 285 284 285 285 285 285 285 284 284 284 284
Wind_Speed
7 6 13 19 22 22 24 21 12 12 16 15 16 17 18 15 13 11 8 9 9 8 6 6 5 5 5 5 2 1 2 4 5 4 4 6 10 10 10 7 8 9 13
7 4 8 12 14 27 27 26 18 13 15 16 14 17 15 17 16 11 11 12 11 9 7 7 6 6 5 4 2 2 3 3 5 8 6 7 11 11 12 13 14 14 16
1 2 4 7 13 18 20 22 24 20 17 17 16 15 16 19 16 13 12 13 11 9 8 7 7 6 4 2 3 3 6 7 9 13 8 6 8 9 10 9 8 8 8
8 3 4 7 10 15 18 22 21 18 18 18 16 14 16 18 16 13 14 15 12 9 8 9 8 5 3 5 5 8 11 13 15 17 16 10 10 10 10 8 8 8 8
9 9 8 8 10 15 23 23 19 18 18 18 18 15 16 17 17 17 18 15 14 16 15 12 10 8 7 8 13 13 16 18 18 16 12 9 7 6 6 4 4 4 9
10 10 11 12 16 17 19 21 17 16 16 14 15 15 15 14 16 19 20 22 22 23 27 28 27 26 26 23 20 17 14 16 15 13 11 10 9 7 7 6 4 3 1
12 12 18 20 18 16 16 16 16 15 13 13 13 14 15 16 19 21 23 26 24 24 26 26 25 24 25 28 29 29 27 23 17 14 14 11 10 8 7 7 8 8 7
17 19 17 18 17 15 14 15 14 15 16 17 17 17 20 24 23 26 27 28 27 25 23 23 21 19 18 21 23 24 23 22 19 18 17 14 12 10 10 8 6 5 5
16 21 20 18 19 18 19 18 19 20 21 22 23 27 29 25 26 30 33 33 31 24 21 19 19 20 20 20 22 24 23 22 22 23 22 20 19 17 11 8 8 6 4
19 18 20 20 23 22 24 24 24 26 27 27 27 28 29 28 31 34 29 28 26 24 22 21 20 21 20 18 19 19 20 16 15 15 15 16 15 17 17 15 11 9 9
20 24 21 19 25 26 28 28 29 29 29 28 29 25 27 30 28 29 25 25 25 25 23 21 19 20 20 19 18 18 19 17 15 14 14 13 14 14 14 14 13 12 10
24 24 24 24 26 30 31 29 31 32 30 27 26 26 25 25 24 21 21 23 23 25 23 22 22 22 22 21 21 20 17 15 13 13 13 13 12 12 12 11 12 11 10
26 24 27 28 29 31 32 30 26 28 28 25 25 24 24 23 22 23 25 25 24 25 23 25 25 23 22 21 19 16 14 13 13 13 12 11 10 10 9 9 9 9 9
27 27 28 29 27 27 28 29 28 26 26 26 24 25 25 25 23 22 24 26 28 31 29 25 20 18 18 18 16 14 14 13 12 12 10 9 8 9 10 10 10 10 10
29 27 27 28 27 26 25 25 24 23 24 28 25 26 29 25 21 23 23 25 25 25 25 21 17 15 16 15 14 14 12 11 11 10 9 9 9 9 10 10 11 11 12
28 26 27 28 26 27 27 24 17 23 23 23 26 27 24 25 29 25 24 24 27 23 19 18 16 15 15 14 13 12 11 10 9 9 8 8 9 9 10 10 10 11 12
28 28 28 29 27 28 26 28 27 24 25 28 26 27 31 30 26 25 27 27 22 17 17 16 16 15 14 13 12 10 10 8 8 8 8 8 8 9 9 10 11 11 11
31 32 30 28 29 27 27 27 27 25 25 24 25 31 31 28 27 27 26 22 16 14 15 16 15 15 14 13 11 10 9 8 7 7 7 8 8 9 9 10 11 11 11
31 28 29 29 30 29 29 28 26 26 24 25 27 25 25 25 25 23 20 14 16 15 15 15 14 14 13 12 11 9 8 7 6 6 6 7 7 8 9 8 8 10 10
27 32 31 30 31 29 28 29 27 26 26 25 24 24 25 25 20 15 12 14 15 15 15 15 14 13 12 11 10 9 9 7 6 6 6 6 7 7 8 8 8 9 9
29 31 33 31 29 29 29 28 27 27 26 24 23 23 24 19 17 15 14 14 14 15 15 15 14 13 13 11 10 9 8 7 6 6 6 6 6 7 7 7 8 8 9
27 29 29 27 29 28 27 26 26 27 26 25 23 23 22 16 15 15 15 14 14 15 15 17 15 14 13 12 10 9 8 7 7 6 6 5 6 6 6 7 8 9 10
25 27 26 26 26 29 27 25 25 26 25 24 24 24 17 16 15 15 15 15 16 16 16 16 16 15 14 11 10 9 9 7 7 6 6 6 5 6 6 7 8 8 9
22 26 28 28 27 26 25 24 23 25 25 25 24 22 18 17 16 16 16 17 17 17 17 17 16 16 15 13 11 10 9 9 8 7 6 6 5 6 5 6 7 8 8
21 21 26 28 27 24 25 21 23 23 24 25 23 22 20 18 17 18 18 18 18 19 18 17 17 16 14 13 11 11 10 9 8 8 7 6 6 6 5 6 6 7 8
17 18 20 23 23 24 24 21 21 22 23 22 22 22 22 20 19 21 20 20 19 19 18 18 17 16 15 13 12 11 11 10 9 8 7 6 5 4 4 5 6 6 7
Wind_Direction
351 144 151 136 135 146 147 149 181 192 154 162 167 172 172 171 157 168 170 153 145 148 148 153 161 151 147 144 128 133 119 149 118 108 96 75 72 78 77 81 105 113 83
352 78 108 119 134 137 148 157 180 187 163 163 165 168 177 175 169 160 146 137 145 150 164 160 158 154 143 152 158 159 175 151 131 120 98 75 79 82 92 98 96 98 92
205 298 172 167 162 154 158 163 170 168 161 162 164 176 179 173 168 160 142 139 150 159 173 176 166 150 141 158 167 143 153 131 136 143 117 94 86 77 78 80 78 73 66
225 178 222 179 168 158 155 162 157 158 151 156 169 171 166 167 163 152 142 146 152 154 178 159 143 150 146 140 143 135 134 122 121 118 110 95 83 78 72 63 64 54 54
237 182 211 182 160 152 146 146 154 151 155 160 166 161 158 159 164 159 149 143 136 125 111 102 98 104 114 126 128 121 125 119 115 108 94 93 81 69 51 43 68 80 54
214 186 182 169 151 142 138 139 143 146 158 162 165 162 155 157 161 156 149 137 132 125 112 106 101 99 93 94 103 105 108 117 106 96 87 82 66 56 43 37 24 342 15
210 174 161 144 134 134 142 144 146 144 154 162 162 163 157 157 164 155 148 138 134 124 122 119 109 101 106 100 90 85 80 80 83 87 84 70 64 50 51 55 50 55 52
202 167 165 159 150 144 142 137 139 147 149 150 150 154 157 149 157 153 144 134 126 122 117 112 106 103 103 103 98 91 83 75 73 77 78 74 67 58 58 55 54 73 64
176 167 168 162 149 149 147 143 141 137 133 132 135 136 132 132 151 146 137 128 112 107 103 105 107 106 106 106 104 100 93 86 80 82 81 76 67 60 58 56 40 26 28
174 176 166 162 154 152 148 141 136 133 125 127 120 127 129 125 132 135 128 122 117 112 104 102 104 107 105 104 105 106 101 98 95 87 78 69 62 54 53 51 39 32 15
179 176 159 156 156 151 147 146 137 127 122 117 116 115 117 126 127 129 124 124 123 117 113 109 106 103 102 101 100 102 105 107 97 87 78 69 59 52 47 44 43 43 29
177 161 149 154 149 147 145 139 136 130 121 117 113 108 109 116 120 120 124 123 123 119 117 116 113 105 100 97 98 103 101 96 93 86 76 66 58 49 44 42 43 47 46
161 148 144 148 146 149 142 135 129 131 128 125 119 117 115 115 115 119 117 117 116 115 119 120 114 108 103 98 98 96 92 89 88 83 77 71 61 52 46 41 40 41 36
154 146 145 140 140 142 140 140 138 138 135 132 130 126 124 123 128 125 119 114 114 114 117 117 115 111 106 101 92 86 86 86 85 83 80 73 62 52 48 41 37 34 30
144 144 140 139 139 136 138 142 145 148 146 141 138 138 135 136 143 139 136 129 128 128 125 121 116 112 106 100 94 90 86 84 82 81 76 68 60 53 46 38 36 32 34
141 142 140 137 135 129 122 113 125 141 143 138 138 139 132 139 146 139 136 141 135 131 125 123 120 115 111 109 104 99 92 88 84 80 73 66 59 51 46 41 37 35 33
140 139 137 136 136 133 128 121 109 108 128 137 141 140 136 139 139 137 134 132 132 127 123 123 121 120 117 114 111 109 103 94 87 78 73 66 59 53 46 42 37 36 35
140 140 140 140 138 137 135 132 131 130 121 119 124 133 137 140 140 140 138 132 123 121 124 126 125 124 122 121 120 119 112 102 91 83 75 68 60 55 50 45 41 37 32
139 140 142 140 140 139 135 132 129 129 127 127 127 125 131 134 137 141 132 133 133 130 130 129 129 129 129 127 128 124 117 111 100 91 79 68 59 54 51 46 42 37 33
139 141 141 138 138 136 138 134 133 135 134 136 136 138 142 139 142 146 138 138 135 134 136 135 134 135 135 133 132 128 123 114 105 94 84 70 59 55 51 43 38 34 31
139 140 141 142 145 142 140 139 140 139 139 141 143 151 153 148 148 147 144 143 142 143 143 142 142 143 142 141 139 137 135 126 116 105 90 75 62 56 48 43 37 36 32
139 139 142 144 144 141 141 142 143 140 142 141 145 153 150 145 145 145 145 144 147 150 151 152 150 152 152 151 149 146 144 137 128 117 104 86 68 57 48 43 40 36 30
138 139 140 140 140 140 140 142 145 145 146 147 149 154 155 148 145 147 146 148 153 154 156 158 157 155 157 156 154 154 149 147 139 130 118 100 79 62 50 45 39 36 32
141 141 142 142 143 144 143 147 154 151 151 150 153 155 155 150 148 150 151 155 159 161 162 163 165 164 163 162 159 158 153 149 138 129 118 108 94 70 57 51 43 36 33
148 142 143 146 147 147 145 151 154 153 154 152 155 155 156 154 152 155 157 160 164 166 166 166 168 168 168 166 162 160 156 150 142 131 119 111 100 82 67 54 49 39 36
155 144 143 149 151 153 152 154 155 157 160 160 161 160 161 160 161 163 165 166 167 169 171 171 171 170 168 167 165 162 158 154 147 134 122 116 102 85 72 58 52 45 39